Weather History for KSNY - January, 2013

Change the Weather History Date:

Sunday, January 13, 2013

  Actual Average Record
Temperature  
Mean Temperature 4 °F 29 °F  
Max Temperature 16 °F 42 °F 69 °F (1987)
Min Temperature -8 °F 16 °F -16 °F (1997)
Degree Days  
Heating Degree Days 61 36  
Month to date heating degree days 538 468  
Since 1 July heating degree days 3094 3015  
Cooling Degree Days 0 0  
Month to date cooling degree days 0 0  
Year to date cooling degree days 0 0  
Moisture  
Dew Point -3 °F    
Average Humidity 73    
Maximum Humidity 86    
Minimum Humidity 59    
Precipitation  
Precipitation T in 0.01 in 0.12 in (1957)
Month to date precipitation T 0.09  
Year to date precipitation T 0.09  
Sea Level Pressure  
Sea Level Pressure 30.31 in    
Wind  
Wind Speed 8 mph (WNW)    
Max Wind Speed 14 mph    
Max Gust Speed 16 mph    
Visibility 10 miles    
Events      
T = Trace of Precipitation, MM = Missing Value Source: NWS Daily Summary

Daily Weather History Graph

Daily Weather History Graph

Search for Another Location

Airport or City:

Trip Planner

Search our weather history database for the weather conditions in past years. The results will help you decide how hot, cold, wet, or windy it might be!

Date:

Astronomy

Jan. 13, 2013 Rise Set
Actual Time 7:15 AM MST 4:46 PM MST
Civil Twilight 6:45 AM MST 5:16 PM MST
Nautical Twilight 6:11 AM MST 5:50 PM MST
Astronomical Twilight 5:38 AM MST 6:23 PM MST
Moon 8:13 AM MST (1/13) 7:29 PM MST (1/13)
Length of Visible Light 10h 31m
Length of Day
9h 30m
Waxing Crescent, 5% of the Moon is Illuminated
Jan 13
Waxing Crescent
Jan 18
First Quarter
Jan 26
Full
Feb 3
Last Quarter
Feb 10
New

Hourly Weather History & Observations

Time (MST) Temp. Windchill Dew Point Humidity Pressure Visibility Wind Dir Wind Speed Gust Speed Precip Events Conditions
12:53 AM -5.1 °F -22.5 °F -9.9 °F 80% 30.30 in 10.0 mi West 10.4 mph - N/A   Clear
1:53 AM -4.0 °F -21.2 °F -9.9 °F 76% 30.30 in 10.0 mi WNW 10.4 mph - N/A   Mostly Cloudy
2:53 AM -6.0 °F -22.6 °F -11.9 °F 75% 30.30 in 10.0 mi WNW 9.2 mph - N/A   Overcast
3:53 AM -2.0 °F -15.4 °F -7.1 °F 79% 30.27 in 10.0 mi WNW 6.9 mph - N/A   Overcast
4:53 AM -0.0 °F -14.2 °F -6.0 °F 76% 30.27 in 10.0 mi WNW 8.1 mph - N/A   Overcast
5:53 AM 1.0 °F -14.0 °F -4.0 °F 79% 30.31 in 10.0 mi WNW 9.2 mph - N/A   Partly Cloudy
6:53 AM -0.0 °F -9.9 °F -5.1 °F 79% 30.38 in 10.0 mi West 4.6 mph - N/A   Scattered Clouds
7:53 AM -0.0 °F -13.0 °F -5.1 °F 79% 30.39 in 10.0 mi WNW 6.9 mph - N/A   Clear
8:53 AM 3.9 °F -9.4 °F -0.9 °F 80% 30.39 in 10.0 mi WNW 8.1 mph - N/A   Clear
9:53 AM 9.0 °F -4.2 °F 1.9 °F 73% 30.38 in 10.0 mi WNW 9.2 mph - N/A   Clear
10:53 AM 10.9 °F -2.6 °F 3.9 °F 73% 30.35 in 10.0 mi NW 10.4 mph - N/A   Clear
11:53 AM 12.9 °F -0.2 °F 5.0 °F 71% 30.32 in 10.0 mi NW 10.4 mph - 0.00 in   Clear
12:53 PM 12.9 °F -0.2 °F 3.9 °F 67% 30.31 in 10.0 mi North 10.4 mph - 0.00 in   Partly Cloudy
1:18 PM 14.0 °F 2.0 °F 5.0 °F 67% 30.05 in 10.0 mi WNW 9.2 mph - N/A   Mostly Cloudy
1:53 PM 12.9 °F 0.7 °F 3.0 °F 65% 30.32 in 10.0 mi NW 9.2 mph - 0.00 in   Partly Cloudy
2:23 PM 15.8 °F 3.4 °F 3.2 °F 58% 30.07 in 10.0 mi WNW 10.4 mph - N/A   Mostly Cloudy
2:39 PM 15.8 °F 2.7 °F 3.2 °F 58% 30.07 in 10.0 mi NW 11.5 mph - N/A   Overcast
2:48 PM 14.0 °F 2.0 °F 1.4 °F 57% 30.07 in 10.0 mi NW 9.2 mph - N/A   Mostly Cloudy
2:53 PM 15.1 °F 1.8 °F 3.9 °F 61% 30.33 in 10.0 mi NW 11.5 mph - N/A   Scattered Clouds
3:53 PM 12.9 °F 0.7 °F 3.0 °F 65% 30.34 in 10.0 mi NNW 9.2 mph - N/A   Clear
4:53 PM 8.1 °F -2.0 °F -0.0 °F 70% 30.36 in 10.0 mi NW 5.8 mph - N/A   Partly Cloudy
5:53 PM 3.0 °F -8.0 °F -2.0 °F 80% 30.38 in 10.0 mi NW 5.8 mph - N/A   Clear
6:53 PM 1.0 °F -12.9 °F -4.0 °F 79% 30.40 in 10.0 mi West 8.1 mph - N/A   Clear
7:53 PM -0.9 °F -15.3 °F -6.0 °F 79% 30.43 in 10.0 mi WNW 8.1 mph - N/A   Clear
8:53 PM -6.0 °F -22.6 °F -11.9 °F 75% 30.43 in 10.0 mi West 9.2 mph - N/A   Clear
9:53 PM -7.1 °F -23.9 °F -11.9 °F 79% 30.42 in 10.0 mi West 9.2 mph - N/A   Clear
11:53 PM -8.0 °F -21.0 °F -13.0 °F 79% 30.41 in 10.0 mi West 5.8 mph - N/A   Clear